星链-30867 (STARLINK-30867 )

导读 | 星芒AI

STARLINK-30867 是 SpaceX 星链计划中的一颗低轨通信卫星,属于第 14 批(V1.5 版本)部署的星链卫星之一。该卫星于 2023 年 10 月发射,运行在约 550 公里的轨道高度,旨在为全球提供高速互联网服务。星链系统通过大规模部署卫星,构建覆盖全球的宽带网络,尤其服务于偏远和网络基础设施薄弱的地区。STARLINK-30867 采用先进推进系统和激光通信技术,提升网络稳定性和数据传输效率。

基本信息
目录编号:
58231
目录名称:
STARLINK-30867
国际标识:
2023-171B
轨道中心:
EARTH
卫星名称:
星链-30867
卫星全名:
星链-30867 (STARLINK-30867 )
卫星状态:
在轨 (已飞行723 天)
发射日期:
2023-11-08 UTC
国别 :
美国 (US)
星等 :
--
轨道信息
数据来源 国际轨道数据
星历时间: 2025-10-31T06:04:55+0800
15小时前
查看轨道信息
半长轴: 6937.217km
偏心率: 0.0001259
轨道倾角: 43.005°
近地点辐角 264.533°
升交点赤经 271.229°
平近点角 95.537°
近地点: 558.208km
远地点: 559.956km
周期: 95.838分钟
每日圈数: 15.02536
详细信息
固有亮度:
5
最大亮度:
0.3
卫星平台:
Starlink v2.0 mini
覆盖范围:
全球
运营商:
太空探索技术公司
运营商所在国:
美国
制造商(研发单位):
太空探索技术公司
制造商所在国:
美国
使用方式:
暂无
卫星简介
星链(Starlink)计划是由太空探索技术公司(SpaceX)提出的一个巨型低轨卫星互联网星座项目,计划在2019年至2024年间在太空搭建由约1.2万颗卫星组成的“星链”网络,其中1584颗将部署在地球上空550千米处的近地轨道,并从2020年开始工作。该卫星仍在工作。
2D轨道图
3D轨道图
轨道高度分析图
轨道倾角分析图
轨道综合分析图
查看轨道综合分析图